Weather in Pasikudah

Sri Lanka     7°55′48″N   81°33′32″E
temp.,
°C
wind,
m/s
gust,
m/s
humid.,
%
clouds,
%
prec.,
mm/h
press.,
hPa
HPBL,
m
20 april, tue
tue2023:30+27ne117779 1.0 1010106
02:30+26nnw2280100 0.0 1009207
05:30+25nw128399 0.0 1009162
08:30+28s01725 0.0 1011420
11:30+31e32605 0.0 10101002
14:30+31e64635 0.0 1007757
17:30+29ese56705 0.0 1007414
20:30+28se477822 0.3 1009320
21 april, wed
wed2123:30+26sse3383100 1.6 1010273
02:30+26ssw1183100 0.7 100990
05:30+25sw218755 0.7 1010124
08:30+28wsw117324 0.0 1012364
11:30+31ene32625 0.0 10111053
14:30+31e546130 0.0 1008687
17:30+29e566717 0.0 1008481
20:30+28sse35765 0.3 1011422
22 april, thu
thu2223:30+27ssw01775 0.3 1011152
02:30+26wnw228131 0.1 1009138
05:30+25nw3486100 0.1 1010185
08:30+28wnw227182 0.0 1012431
11:30+32ne2356100 0.0 10111048
14:30+30e5462100 0.0 1008659
17:30+29e456960 0.0 1008447
20:30+28sse347683 0.1 1011328
23 april, fri
fri2323:30+27ene017789 0.8 101161
02:30+26nw348286 0.1 1009229
05:30+25wnw238873 0.1 1010151
08:30+28wsw227365 0.0 1012453
11:30+32se23565 0.0 10101111
14:30+32e555791 0.0 1007879
17:30+29ese677299 0.0 1007330
20:30+27se35795 0.6 1010207
24 april, sat
sat2423:30+27wnw128097 0.8 1011124
02:30+26nw348336 0.4 1009256
05:30+25wnw2288100 0.4 1010158
08:30+28wsw11714 0.0 1011474
11:30+32ese32586 0.0 10101009
14:30+32e645823 0.0 1007896
17:30+29ese687245 0.0 1007440
20:30+27se46795 0.2 1010380